Wind_Speed
25 25 24 25 26 27 28 29 30 31 32 33 34 35 37 39 41 42 43 45 46 47 49 50 52 53 53 55 56 56 56 57 57 57 57 57 58 60 62 64 66 68 70
27 27 27 28 29 30 31 32 32 34 35 36 38 38 40 42 44 46 47 48 49 51 52 53 54 55 56 57 58 58 59 60 59 59 59 59 59 60 62 65 67 69 71
28 29 29 30 31 32 34 34 35 37 38 40 41 42 44 45 47 49 50 52 53 54 54 55 56 57 58 60 60 60 60 61 60 60 61 61 62 63 63 66 69 71 73
30 31 32 33 34 35 36 37 38 40 41 43 44 46 47 48 50 52 53 55 56 57 57 57 58 59 61 62 62 62 62 62 61 61 61 63 64 65 66 67 70 71 73
32 33 34 35 36 37 38 40 41 43 44 46 47 49 50 52 54 55 56 57 58 58 59 59 60 62 62 63 63 63 63 62 62 62 62 64 66 68 68 68 70 72 74
34 36 37 38 39 40 41 42 44 45 47 48 50 51 53 54 56 56 57 58 59 59 60 61 63 63 63 64 64 64 63 63 62 63 64 66 68 69 70 69 69 71 72
35 37 38 40 41 43 44 45 46 47 49 50 52 53 55 56 57 58 59 60 60 60 62 64 64 64 64 64 65 65 64 63 63 64 66 67 69 70 70 70 70 70 71
36 37 39 41 43 44 45 47 48 49 50 52 53 54 56 57 58 59 60 60 61 62 63 64 65 65 65 65 66 65 65 64 64 65 66 67 69 70 70 71 71 70 70
37 39 40 42 43 45 46 47 49 50 51 52 53 55 56 57 58 59 60 60 61 62 64 64 65 65 65 66 66 65 64 64 64 65 66 67 68 69 70 70 70 71 70
40 41 42 43 45 46 47 49 50 51 52 53 54 55 56 57 58 59 60 61 62 63 64 65 66 66 66 67 67 65 65 64 64 65 66 67 68 68 68 69 70 70 71
42 42 43 44 46 47 48 49 50 51 52 53 54 55 56 57 58 59 61 62 62 63 65 66 66 66 66 67 66 65 65 63 63 64 66 66 67 67 67 68 68 69 69
45 45 45 46 47 48 48 49 50 50 51 52 53 54 55 57 58 59 60 61 62 63 64 64 65 64 64 64 64 63 62 62 62 63 64 64 65 65 66 66 66 67 67
48 48 48 48 49 49 49 49 50 50 51 52 53 54 55 55 56 57 58 59 61 62 62 62 61 61 61 61 60 60 60 60 61 61 62 63 63 63 63 63 64 65 65
50 50 50 50 50 50 49 49 50 50 51 51 52 53 54 54 55 56 57 58 59 60 59 58 58 58 58 58 57 57 58 58 59 60 62 62 61 61 61 61 62 63 63
51 51 51 50 50 49 49 49 50 50 50 51 51 52 53 54 55 56 57 57 57 57 57 56 56 56 56 55 55 55 56 57 58 59 59 59 59 59 60 60 60 60 60
50 49 49 49 49 49 48 48 49 50 51 51 52 53 54 55 55 56 56 56 55 55 55 55 55 54 53 54 55 55 55 56 56 57 58 58 57 58 58 59 58 58 58
47 46 47 47 47 48 48 48 49 50 51 52 53 53 53 54 54 54 53 53 53 54 53 53 52 53 53 53 53 53 54 55 55 55 56 55 55 56 57 56 56 55 55
46 46 47 47 48 49 49 49 50 50 51 51 51 51 52 52 52 52 52 52 52 52 52 51 52 52 52 52 52 52 53 53 54 54 54 54 54 55 55 54 53 52 52
47 48 48 49 48 49 49 49 50 50 51 50 50 51 51 51 51 51 51 51 51 51 51 51 51 51 51 51 51 52 52 53 52 52 52 53 53 53 53 52 51 50 49
49 49 49 49 49 49 49 50 50 51 50 50 50 50 51 51 51 51 51 51 51 51 52 51 51 52 51 51 51 52 52 52 51 51 51 52 52 51 51 50 49 48 47
50 50 50 51 50 50 50 50 51 50 50 50 51 51 51 51 51 51 52 52 53 53 53 53 53 53 52 52 51 51 51 51 50 50 50 50 50 49 49 48 48 47 46
53 53 53 52 52 51 51 52 52 52 51 51 51 51 52 52 53 54 55 55 55 55 54 54 54 53 52 51 50 50 50 50 49 49 49 49 48 47 47 46 46 45 44
56 55 54 53 53 53 53 54 53 53 52 51 52 52 53 54 55 56 57 56 56 56 55 55 54 53 52 50 48 48 48 48 47 47 47 47 46 45 45 44 44 44 43
57 56 55 54 54 54 55 55 55 54 54 53 54 55 56 56 57 57 58 58 58 57 56 55 54 53 50 48 47 46 46 46 46 46 45 45 44 43 43 43 43 42 41
57 56 56 55 55 55 56 56 56 55 55 56 56 57 57 58 58 58 59 59 58 58 56 55 54 52 49 47 46 45 44 44 44 44 44 43 42 41 41 41 41 41 40
57 56 56 56 56 56 56 56 56 56 57 57 57 57 57 58 58 59 59 59 58 57 55 54 53 51 48 46 44 43 42 42 42 42 42 41 40 40 40 40 40 39 39
Wind_Direction
271 274 274 275 276 278 279 280 281 283 285 287 289 291 293 294 296 297 298 299 300 301 302 303 303 304 304 304 304 304 304 302 301 299 298 298 299 300 301 301 301 301 301
271 272 273 274 275 277 278 280 281 283 285 287 289 291 292 294 295 296 297 298 299 300 301 302 303 303 303 303 304 303 303 302 301 300 298 298 298 299 301 302 302 303 303
272 272 273 274 275 276 277 279 281 283 286 287 289 291 292 294 295 295 297 298 298 299 300 300 301 301 302 303 303 303 303 302 301 300 300 299 299 299 301 302 303 304 305
273 273 274 274 275 277 279 280 282 284 286 288 290 291 293 294 294 295 296 297 297 298 298 299 299 300 301 302 302 302 302 302 301 301 301 301 301 301 301 303 304 304 305
275 274 275 276 277 279 280 282 284 286 287 289 291 292 293 293 293 295 295 296 296 297 298 298 298 299 300 300 301 302 302 302 302 302 302 302 302 303 303 304 304 305 306
278 278 279 280 280 282 283 285 286 287 288 290 291 292 292 292 293 294 294 295 295 296 296 296 297 298 299 299 300 301 302 302 302 303 303 303 304 304 304 305 305 306 307
282 283 284 285 285 286 287 288 289 290 290 291 292 292 292 293 294 294 294 294 294 295 295 295 296 297 298 298 299 301 302 303 303 304 304 304 304 305 305 306 306 307 308
288 289 289 289 290 290 291 291 291 292 292 292 292 292 292 293 294 294 294 294 294 294 294 295 296 297 298 299 300 302 303 303 304 304 304 304 305 305 305 306 307 308 309
293 292 291 292 292 292 291 292 292 292 291 291 291 292 292 293 293 293 294 294 293 293 294 295 296 297 299 300 301 302 303 303 303 304 304 304 305 305 306 306 308 309 310
295 294 294 294 293 293 292 292 292 292 292 292 292 292 293 293 293 293 293 293 294 294 295 296 297 298 299 300 301 302 302 303 303 303 303 304 305 306 306 307 308 309 311
296 295 294 294 294 294 294 294 293 293 292 292 293 293 293 292 292 293 293 294 294 294 295 296 297 298 299 299 300 301 301 302 302 302 303 304 305 306 306 307 309 310 311
300 298 298 297 297 296 296 295 294 294 293 293 293 293 293 293 293 293 294 295 296 296 297 297 298 298 299 300 300 300 300 300 301 302 304 305 305 306 307 308 309 311 312
301 301 300 300 299 298 297 297 296 296 295 295 295 294 294 294 294 295 296 297 297 298 298 298 298 298 299 300 300 299 299 300 301 302 303 304 305 306 307 308 310 311 312
301 301 301 300 300 299 298 298 298 297 297 297 297 296 296 296 296 297 297 298 298 299 298 298 297 298 299 299 298 298 299 299 300 301 302 304 305 306 307 309 311 312 313
302 302 302 301 300 300 299 299 299 298 298 298 298 297 297 297 297 297 297 297 298 298 298 298 298 298 298 298 298 299 299 300 300 301 302 304 305 306 308 310 311 312 313
303 303 303 302 302 301 300 300 299 299 298 298 297 297 297 298 298 298 298 298 298 298 299 299 298 297 297 297 297 298 298 300 301 301 302 304 305 306 308 310 311 312 314
304 304 304 304 303 303 302 301 300 299 299 298 298 297 297 298 298 298 298 298 299 299 299 299 298 297 297 297 298 298 299 300 301 301 302 304 305 306 309 310 312 313 313
307 306 306 305 304 303 302 301 300 299 299 299 298 298 298 298 299 299 299 299 299 299 299 299 299 299 298 298 298 298 299 300 301 301 302 304 305 306 309 311 312 313 313
307 306 305 304 304 302 302 301 300 300 300 300 299 299 299 299 299 300 300 300 300 300 300 300 300 300 299 298 298 298 299 300 300 301 302 304 305 307 309 311 312 313 313
306 305 304 304 303 303 302 302 302 301 301 300 299 299 300 300 300 300 300 300 301 300 300 300 300 300 300 299 299 299 299 300 300 300 301 303 305 307 310 311 313 313 314
304 304 303 303 303 302 301 301 302 302 301 301 300 300 300 300 300 300 300 300 300 300 299 300 299 299 299 298 298 298 298 299 299 300 301 303 305 308 310 312 313 314 314
303 302 302 302 302 301 301 302 302 302 302 301 301 300 300 300 300 300 300 300 300 300 299 299 299 298 298 297 296 296 297 298 299 299 301 303 305 308 310 312 313 314 315
301 301 301 302 301 300 301 301 301 301 302 301 301 300 300 301 301 301 301 300 299 299 299 300 299 298 297 296 295 295 296 297 298 299 301 303 305 308 310 312 313 314 315
301 301 300 301 301 300 300 301 301 302 302 301 301 301 301 301 301 301 301 300 300 299 299 299 298 298 296 294 293 294 295 296 297 298 300 302 305 308 310 312 313 314 315
300 300 300 300 300 300 300 301 302 302 302 302 302 302 302 302 302 302 302 301 300 299 299 298 297 298 296 293 291 292 293 294 295 298 300 302 305 308 310 312 313 314 316
299 299 299 299 300 300 301 301 302 302 303 303 303 303 303 303 303 303 302 301 300 299 299 298 298 297 293 291 290 290 290 292 294 297 299 302 305 308 311 313 314 315 316
Height
5822 5821 5819 5818 5816 5814 5812 5810 5808 5805 5802 5800 5796 5794 5790 5786 5782 5777 5773 5768 5764 5759 5753 5748 5742 5736 5731 5725 5719 5713 5706 5700 5694 5688 5683 5677 5670 5663 5655 5647 5640 5633 5626
5815 5814 5812 5811 5809 5807 5804 5802 5800 5797 5794 5791 5788 5785 5781 5777 5772 5767 5762 5758 5753 5748 5742 5736 5731 5724 5719 5712 5706 5700 5693 5686 5680 5674 5667 5662 5657 5650 5641 5631 5623 5614 5607
5808 5807 5805 5803 5801 5798 5796 5794 5791 5788 5785 5781 5778 5775 5771 5767 5762 5756 5752 5747 5741 5736 5730 5724 5718 5712 5706 5700 5693 5686 5679 5672 5666 5659 5652 5645 5639 5633 5626 5616 5606 5596 5587
5801 5799 5797 5795 5793 5790 5788 5785 5782 5779 5775 5771 5768 5764 5760 5756 5751 5745 5740 5735 5729 5723 5717 5711 5705 5699 5693 5686 5679 5673 5666 5658 5651 5644 5637 5629 5622 5615 5609 5601 5589 5579 5568
5794 5791 5789 5787 5784 5782 5779 5776 5773 5769 5765 5761 5757 5753 5749 5744 5738 5733 5728 5722 5716 5710 5704 5697 5691 5685 5679 5672 5665 5658 5651 5644 5636 5629 5621 5614 5605 5597 5590 5584 5573 5561 5549
5786 5783 5781 5778 5776 5773 5770 5766 5763 5759 5755 5750 5746 5741 5737 5731 5726 5720 5714 5708 5702 5697 5690 5683 5677 5671 5664 5657 5650 5643 5636 5629 5621 5613 5605 5597 5589 5580 5571 5564 5556 5545 5532
5778 5775 5773 5770 5767 5764 5760 5756 5753 5748 5744 5739 5734 5729 5723 5717 5712 5706 5700 5694 5688 5682 5675 5668 5662 5656 5649 5642 5634 5627 5620 5613 5605 5597 5589 5580 5572 5562 5553 5545 5537 5528 5516
5770 5767 5764 5761 5757 5754 5750 5746 5741 5737 5731 5726 5721 5716 5710 5704 5698 5692 5685 5679 5673 5667 5660 5653 5647 5640 5633 5626 5619 5612 5604 5597 5589 5581 5572 5564 5555 5545 5535 5526 5517 5509 5500
5761 5758 5754 5750 5746 5742 5738 5734 5729 5724 5718 5713 5707 5702 5696 5689 5683 5677 5670 5664 5658 5651 5644 5638 5631 5624 5617 5610 5603 5596 5589 5581 5573 5565 5556 5547 5538 5528 5518 5508 5498 5489 5480
5751 5748 5744 5739 5735 5730 5726 5721 5716 5710 5705 5699 5693 5687 5681 5674 5668 5661 5655 5648 5642 5635 5629 5622 5616 5609 5602 5595 5587 5580 5572 5565 5557 5548 5540 5530 5521 5511 5501 5491 5481 5470 5460
5741 5737 5733 5728 5723 5718 5713 5708 5702 5696 5690 5684 5678 5672 5666 5659 5652 5646 5639 5632 5626 5619 5613 5606 5600 5593 5586 5579 5571 5564 5557 5549 5541 5532 5523 5514 5505 5495 5485 5475 5464 5453 5442
5728 5723 5719 5715 5710 5704 5699 5693 5687 5681 5675 5669 5663 5657 5650 5643 5637 5631 5624 5617 5611 5604 5597 5591 5584 5577 5570 5562 5555 5548 5541 5533 5525 5516 5508 5499 5489 5479 5469 5459 5448 5437 5426
5713 5709 5705 5700 5695 5689 5684 5678 5672 5666 5660 5654 5648 5642 5635 5628 5622 5615 5609 5602 5595 5588 5581 5574 5568 5561 5554 5547 5539 5532 5525 5518 5510 5501 5493 5483 5474 5464 5454 5444 5433 5422 5411
5700 5695 5691 5686 5680 5675 5669 5663 5657 5651 5645 5639 5633 5626 5620 5613 5607 5601 5594 5587 5580 5573 5566 5559 5552 5546 5538 5531 5524 5517 5510 5502 5494 5486 5477 5468 5459 5449 5439 5429 5419 5408 5397
5687 5681 5676 5671 5666 5660 5655 5649 5643 5637 5630 5624 5618 5612 5605 5599 5592 5586 5579 5572 5565 5558 5550 5544 5537 5530 5523 5517 5509 5502 5495 5487 5479 5471 5462 5454 5444 5435 5425 5416 5406 5395 5384
5673 5668 5662 5657 5651 5646 5640 5635 5629 5622 5616 5610 5604 5597 5591 5584 5577 5570 5563 5556 5550 5543 5536 5529 5522 5515 5509 5502 5494 5488 5480 5473 5465 5456 5448 5439 5430 5421 5412 5402 5392 5382 5371
5661 5655 5650 5644 5638 5632 5626 5621 5615 5608 5602 5596 5589 5582 5576 5569 5562 5555 5548 5541 5535 5528 5521 5514 5507 5501 5494 5486 5479 5472 5466 5458 5450 5442 5434 5426 5417 5408 5399 5390 5380 5370 5359
5649 5643 5637 5631 5625 5619 5613 5607 5600 5594 5587 5581 5574 5568 5561 5554 5548 5541 5534 5527 5520 5513 5506 5500 5493 5486 5479 5471 5465 5458 5451 5444 5437 5429 5421 5413 5405 5396 5387 5378 5369 5359 5349
5636 5630 5624 5618 5612 5606 5600 5593 5587 5580 5573 5567 5560 5553 5547 5540 5534 5527 5520 5513 5506 5499 5492 5485 5478 5472 5465 5457 5451 5444 5437 5431 5423 5416 5408 5400 5392 5384 5375 5367 5358 5349 5339
5624 5618 5611 5605 5599 5592 5586 5579 5573 5566 5559 5553 5546 5539 5533 5526 5519 5513 5506 5499 5492 5485 5478 5471 5464 5457 5451 5443 5437 5430 5423 5417 5410 5403 5395 5388 5380 5372 5363 5355 5347 5338 5329
5612 5605 5599 5592 5585 5579 5572 5566 5559 5552 5546 5539 5532 5525 5518 5511 5505 5498 5491 5484 5477 5470 5464 5457 5450 5443 5436 5429 5423 5416 5410 5404 5397 5390 5383 5376 5368 5360 5352 5343 5336 5328 5319
5599 5592 5586 5579 5571 5564 5558 5553 5546 5539 5532 5525 5518 5510 5503 5497 5490 5483 5476 5469 5461 5455 5448 5441 5434 5427 5421 5415 5408 5402 5396 5390 5384 5378 5371 5364 5356 5349 5341 5333 5325 5317 5309
5585 5579 5572 5566 5558 5551 5544 5538 5532 5525 5518 5511 5503 5496 5489 5481 5474 5467 5460 5452 5445 5438 5432 5425 5418 5412 5405 5400 5394 5389 5383 5377 5372 5366 5359 5352 5345 5338 5330 5323 5315 5308 5300
5571 5565 5558 5552 5545 5537 5529 5523 5517 5510 5504 5496 5489 5481 5474 5466 5458 5450 5443 5436 5429 5422 5415 5408 5402 5396 5390 5385 5380 5375 5370 5365 5359 5354 5347 5341 5334 5327 5320 5313 5306 5298 5291
5556 5550 5544 5537 5531 5523 5516 5508 5502 5495 5489 5481 5473 5465 5458 5450 5442 5435 5426 5419 5412 5404 5398 5392 5386 5380 5375 5370 5366 5361 5357 5353 5348 5342 5336 5330 5324 5317 5311 5304 5297 5289 5282
5542 5536 5529 5522 5515 5508 5501 5494 5487 5480 5473 5466 5458 5450 5442 5434 5426 5418 5411 5402 5395 5388 5381 5375 5370 5364 5360 5355 5352 5348 5344 5340 5336 5331 5325 5320 5314 5308 5301 5294 5287 5280 5273